Weather History for KSLN - January, 2011

Change the Weather History Date:

Saturday, January 22, 2011

  Actual Average Record
Temperature  
Mean Temperature 32 °F 31 °F  
Max Temperature 44 °F 42 °F 67 °F (1938)
Min Temperature 20 °F 20 °F -9 °F (1929)
Degree Days  
Heating Degree Days 33 34  
Month to date heating degree days 896 748  
Since 1 July heating degree days 2769 2712  
Cooling Degree Days 0 0  
Month to date cooling degree days 0 0  
Year to date cooling degree days 0 0  
Moisture  
Dew Point 27 °F    
Average Humidity 81    
Maximum Humidity 100    
Minimum Humidity 62    
Precipitation  
Precipitation 0.00 in 0.02 in 0.47 in (1965)
Month to date precipitation 0.46 0.40  
Year to date precipitation 0.46 0.40  
Sea Level Pressure  
Sea Level Pressure 29.85 in    
Wind  
Wind Speed 7 mph (SSW)    
Max Wind Speed 29 mph    
Max Gust Speed 33 mph    
Visibility 10 miles    
Events      
T = Trace of Precipitation, MM = Missing Value Source: NWS Daily Summary

Daily Weather History Graph

Daily Weather History Graph

Search for Another Location

Airport or City:

Trip Planner

Search our weather history database for the weather conditions in past years. The results will help you decide how hot, cold, wet, or windy it might be!

Date:

Astronomy

Jan. 22, 2011 Rise Set
Actual Time 7:44 AM CST 5:40 PM CST
Civil Twilight 7:15 AM CST 6:09 PM CST
Nautical Twilight 6:43 AM CST 6:41 PM CST
Astronomical Twilight 6:11 AM CST 7:13 PM CST
Moon 9:28 PM CST (1/22) 9:13 AM CST (1/22)
Length of Visible Light 10h 53m
Length of Day
9h 56m
Waning Gibbous, 89% of the Moon is Illuminated
Jan 22
Waning Gibbous
Jan 26
Last Quarter
Feb 2
New
Feb 11
First Quarter
Feb 18
Full

Hourly Weather History & Observations

Time (CST) Temp. Windchill Dew Point Humidity Pressure Visibility Wind Dir Wind Speed Gust Speed Precip Events Conditions
12:53 AM 28.0 °F 21.7 °F 25.0 °F 88% 29.96 in 10.0 mi SW 5.8 mph - N/A   Clear
1:53 AM 25.0 °F 20.7 °F 24.1 °F 96% 29.94 in 10.0 mi SSW 3.5 mph - N/A   Clear
2:53 AM 28.0 °F 22.8 °F 25.0 °F 88% 29.94 in 10.0 mi SW 4.6 mph - N/A   Clear
3:53 AM 21.9 °F - 19.9 °F 92% 29.93 in 10.0 mi Calm Calm - N/A   Clear
4:53 AM 25.0 °F - 21.9 °F 88% 29.92 in 10.0 mi Calm Calm - N/A   Clear
5:53 AM 23.0 °F - 21.0 °F 92% 29.91 in 10.0 mi Calm Calm - N/A   Clear
6:53 AM 21.9 °F 15.7 °F 19.9 °F 92% 29.89 in 10.0 mi SSE 4.6 mph - N/A   Clear
7:53 AM 24.1 °F 19.7 °F 21.0 °F 88% 29.87 in 10.0 mi South 3.5 mph - N/A   Clear
8:53 AM 26.1 °F 21.9 °F 24.1 °F 92% 29.86 in 10.0 mi South 3.5 mph - N/A   Clear
9:53 AM 28.9 °F 22.8 °F 26.1 °F 89% 29.86 in 10.0 mi South 5.8 mph - N/A   Clear
10:53 AM 30.9 °F 23.5 °F 28.0 °F 89% 29.84 in 10.0 mi SSE 8.1 mph - N/A   Clear
11:53 AM 36.0 °F 28.0 °F 28.9 °F 76% 29.81 in 10.0 mi South 11.5 mph - N/A   Clear
12:53 PM 37.9 °F 30.5 °F 30.0 °F 73% 29.75 in 10.0 mi SSE 11.5 mph - N/A   Clear
1:53 PM 43.0 °F 37.7 °F 30.9 °F 62% 29.73 in 10.0 mi SSE 9.2 mph - N/A   Clear
2:53 PM 42.1 °F 37.1 °F 30.9 °F 65% 29.71 in 10.0 mi SSE 8.1 mph - N/A   Clear
3:53 PM 42.1 °F 37.7 °F 30.9 °F 65% 29.73 in 10.0 mi South 6.9 mph - N/A   Clear
4:53 PM 42.1 °F 39.2 °F 32.0 °F 67% 29.76 in 10.0 mi South 4.6 mph - N/A   Mostly Cloudy
5:53 PM 37.9 °F - 32.0 °F 79% 29.78 in 10.0 mi Calm Calm - N/A   Overcast
6:53 PM 39.0 °F 34.8 °F 32.0 °F 76% 29.78 in 10.0 mi South 5.8 mph - N/A   Overcast
7:53 PM 37.9 °F 32.1 °F 32.0 °F 79% 29.80 in 10.0 mi SSW 8.1 mph - N/A   Overcast
8:53 PM 39.0 °F 31.0 °F 30.0 °F 70% 29.83 in 10.0 mi West 13.8 mph - N/A   Partly Cloudy
9:53 PM 35.1 °F 24.8 °F 30.0 °F 82% 29.86 in 10.0 mi WNW 17.3 mph - N/A   Clear
10:53 PM 32.0 °F 22.1 °F 28.0 °F 85% 29.89 in 10.0 mi NW 13.8 mph - N/A   Clear
11:25 PM 33.8 °F 22.5 °F 28.4 °F 81% 29.87 in 9.0 mi WNW 19.6 mph 26.5 mph N/A   Mostly Cloudy
11:53 PM 32.0 °F 18.9 °F 28.9 °F 88% 29.91 in 5.0 mi NW 24.2 mph 32.2 mph N/A   Overcast